User: anonymous
Location: Hartman Creek State Park
(44.3257°N, 89.2134°W)
Time: 09:13:08
(UTC-05:00)
Language:

BREEZE-M DEB (TANK) - Orbit

View from above orbital plane
View from above orbital plane
View from above satellite
View from above satellite

Ground track
Ground track

The orbit data is extracted from the following two-line orbital elements,

1 29649U 06056B   14241.48986184  .00004478  00000-0  57057-3 0  9953
2 29649 049.4913 258.0347 5428088 246.0758 262.8170 04.94499331136875
Epoch (UTC): 29 August 2014 11:45:24
Eccentricity: 0.5428088
inclination: 49.4913°
perigee height: 275 km
apogee height: 16074 km
right ascension of ascending node: 258.0347°
argument of perigee: 246.0758°
revolutions per day: 4.94499331
mean anomaly at epoch: 262.8170°
orbit number at epoch: 13687

The dashed part of the orbit path shows where the satellite is in the earth's shadow,  

DLR